Location: Fornova de Taro
(44.7000°N, 10.1000°E)
Time: 21:44:59
(UTC+00:00)

Cosmos 292 Rocket - Pass Details

Date: 30 September 2022
Orbit: 670 x 690 km, 74.0° (Epoch: 02 December)

Event Time Altitude Azimuth Distance (km) Brightness Sun altitude
Exits shadow 02:55:09 13° 332° (NNW) 2,013 6.1 -25.3°
Drops below altitude 10° 02:56:09 10° 343° (NNW) 2,186 6.4 -25.1°
Sets 02:59:34 0° 7° (N) 3,104 7.5 -24.6°
